Miscellaneous Local Product
Issued by NWS North Platte, NE

Home | Current Version | Previous Version | Graphics & Text | Print | Product List | Glossary On
Versions: 1 2 3 4 5 6 7 8 9 10 11 12 13 14 15 16 17 18 19 20 21 22 23 24 25 26 27 28 29 30 31 32 33 34 35 36 37 38 39 40 41 42 43 44 45 46 47 48 49 50
000
AXUS43 KLBF 252010
MISLBF


WESTERN AND NORTH CENTRAL NEBRASKA HOURLY WEATHER ROUNDUP
NATIONAL WEATHER SERVICE NORTH PLATTE NE
200 PM CST SUN FEB 25 2018

NOTE: "FAIR" INDICATES FEW OR NO CLOUDS BELOW 12,000 FEET WITH NO
SIGNIFICANT WEATHER AND/OR OBSTRUCTIONS TO VISIBILITY.

NOTE: STATIONS NOT REPORTING VARIABLES SUCH AS SKY/WEATHER OR
PRESSURE ARE PROVIDED BY RAWS AND APRS NETWORKS AND ARE NOT UNDER
NATIONAL WEATHER SERVICE QUALITY CONTROL.

...OBSERVATIONS IN AND NEAR THE EASTERN PANHANDLE OF NEBRASKA...

CITY           SKY/WX    TMP DP  RH WIND       PRES   REMARKS
PINE RIDGE     SUNNY    N/A N/A N/A MISG      29.85F
GORDON         FAIR      33  15  47 W13       29.84R WCI  23
CHADRON        SUNNY     34  15  46 W5        29.84F WCI  30
ALLIANCE       SUNNY     33  18  53 W16       29.85S WCI  23
SIDNEY         MOSUNNY   41   8  25 NW22G32   29.88F
CRESCENT LAKE    N/A     36  14  40 W15G24      N/A  WCI  27
$$

...OBSERVATIONS IN NORTHERN NEBRASKA AND FAR SOUTHERN SOUTH DAKOTA...

CITY           SKY/WX    TMP DP  RH WIND       PRES   REMARKS
WINNER         FAIR      34  19  54 SW13      29.86F WCI  25
VALENTINE      SUNNY     35  18  49 W10       29.86S WCI  27
AINSWORTH      MOSUNNY   34  20  55 W6        29.87S WCI  29
O`NEILL        PTSUNNY   33  21  60 S6        29.90S WCI  28
THEDFORD       SUNNY     38  19  46 W13G18    29.89S WCI  30
BROKEN BOW     SUNNY     36  21  54 W8        29.91F WCI  30
ORD            SUNNY     40  21  46 W13       29.91S WCI  32
ALBION         SUNNY     39  22  50 SW6       29.93R
VALENTINE NWR    N/A     35  16  46 W12         N/A  WCI  27
HALSEY           N/A     40  14  34 W12G18      N/A  WCI  33
BUTTE            N/A     33  20  59 SW5         N/A  WCI  28
CHAMBERS         N/A     38  18  44 W3          N/A
EWING            N/A     36  22  55 W3          N/A
$$

...OBSERVATIONS IN SOUTHWEST NEBRASKA AND FAR NORTHEAST COLORADO...

CITY           SKY/WX    TMP DP  RH WIND       PRES   REMARKS
WRAY           FAIR      45   3  18 W21G29    29.92F
HOLYOKE        FAIR      45   3  18 NW17G25   29.90F
IMPERIAL       SUNNY     43  13  29 NW16G22   29.92F
OGALLALA       SUNNY     41  17  38 W16G23    29.90S
NORTH PLATTE   SUNNY     39  19  44 W15       29.92F WCI  31
MCCOOK         SUNNY     46  14  27 W21       29.94F
LEXINGTON      SUNNY     44  18  34 W17       29.94F
STAPLETON        N/A     36  24  60 CALM        N/A
$$

...OBSERVATIONS IN CENTRAL LINCOLN COUNTY AREA...

CITY           SKY/WX    TMP DP  RH WIND       PRES   REMARKS
N.P. AIRPORT   SUNNY     39  19  44 W15       29.92F WCI  31
N.P. DOWNTOWN    N/A     40  19  43 SW3         N/A
N.P. SOUTHEAST   N/A     40  19  42 W5G13       N/A
N.P. HILLCREST   N/A     39  21  48 W10         N/A  WCI  32
$$

...OBSERVATIONS ACROSS THE ROCKIES AND WESTERN HIGH PLAINS...

CITY           SKY/WX    TMP DP  RH WIND       PRES   REMARKS
RAPID CITY     MOSUNNY   30  21  69 SE9       29.77F WCI  22
SCOTTSBLUFF    MOSUNNY   37  14  38 W25G32    29.85F WCI  25
CHEYENNE       MOSUNNY   32   4  30 W29G44    29.83S WCI  18
DENVER         MOSUNNY   38   0  20 W20G28    29.87F WCI  28
BERTHOUD PASS  SNOW      -2 -13  60 NW39G54   29.72R VSB 1/4 WCI -32
COPPER MTN     PTSUNNY    9  -4  56 W26G35    29.84R HAZE    WCI -13
MONARCH PASS   MOSUNNY    3   0  85 W58G74    29.88R FOG     WCI -28
ASPEN          PTSUNNY   23   6  48 NE8       30.02S WCI  14
LARAMIE        SUNNY     22   6  50 SW35G47   29.80F WCI   3
CASPER         FLURRIES  25  15  66 W28G37    29.82F WCI   9
$$

...OBSERVATIONS ACROSS THE NORTHERN PLAINS...

CITY           SKY/WX    TMP DP  RH WIND       PRES   REMARKS
BISMARCK       SUNNY     31  17  56 SW9       29.71F WCI  23
FARGO          PTSUNNY   28  21  75 W18       29.67R WCI  15
PIERRE         SUNNY     29  17  61 W13       29.82F WCI  19
SIOUX FALLS    MOSUNNY   29  18  63 W15G24    29.89R WCI  18
$$

...OBSERVATIONS ACROSS THE CENTRAL AND SOUTHERN PLAINS...

CITY           SKY/WX    TMP DP  RH WIND       PRES   REMARKS
OMAHA          PTSUNNY   40  23  50 S5        29.99F
GRAND ISLAND   SUNNY     46  19  34 W21       29.93F
KANSAS CITY    MOSUNNY   50  22  33 SW9G17    30.05S
WICHITA        MOSUNNY   50  31  48 S9        30.00F
DODGE CITY     MOSUNNY   49  14  24 N10       29.97F
OKLAHOMA CITY  SUNNY     61  35  37 S15       29.98F
DALLAS         MOSUNNY   67  45  45 S14       29.98F
AMARILLO       SUNNY     58   3  11 W23G32    29.93F
$$




USA.gov is the U.S. government's official web portal to all federal, state and local government web resources and services.